| time (UTC) | temp F | wind direction | speed MPH | gust MPH | rain 1hr in | rain 24hr in | rain mn in | humidity % | barometer mb |
| 20260904172225 | 79 | 184 | 16.0 | 23.0 | 0.00 | 0.00 | 0.00 | 9 | 1016.3 |
| 20260904171719 | 79 | 211 | 17.0 | 27.0 | 0.00 | 0.00 | 0.00 | 9 | 1016.3 |
| 20260904171233 | 79 | 209 | 14.0 | 27.0 | 0.00 | 0.00 | 0.00 | 10 | 1016.2 |
| 20260904170725 | 78 | 207 | 18.0 | 27.0 | 0.00 | 0.00 | 0.00 | 11 | 1016.2 |
| 20260904170244 | 78 | 210 | 14.0 | 23.0 | 0.00 | 0.00 | 0.00 | 13 | 1016.3 |
| 20260904165737 | 77 | 182 | 17.0 | 25.0 | 0.00 | 0.00 | 0.00 | 12 | 1016.3 |
| 20260904165230 | 77 | 196 | 16.0 | 25.0 | 0.00 | 0.00 | 0.00 | 13 | 1016.3 |
| 20260904164724 | 78 | 213 | 14.0 | 22.0 | 0.00 | 0.00 | 0.00 | 13 | 1016.3 |
| 20260904164218 | 77 | 170 | 10.0 | 27.0 | 0.00 | 0.00 | 0.00 | 15 | 1016.3 |
| 20260904163752 | 76 | 211 | 15.0 | 27.0 | 0.00 | 0.00 | 0.00 | 14 | 1016.3 |
| 20260904163225 | 76 | 178 | 15.0 | 22.0 | 0.00 | 0.00 | 0.00 | 15 | 1016.3 |
| 20260904162719 | 76 | 210 | 14.0 | 21.0 | 0.00 | 0.00 | 0.00 | 15 | 1016.3 |
| 20260904162233 | 76 | 200 | 14.0 | 24.0 | 0.00 | 0.00 | 0.00 | 17 | 1016.2 |
| 20260904161726 | 75 | 242 | 15.0 | 24.0 | 0.00 | 0.00 | 0.00 | 17 | 1016.3 |
| 20260904161224 | 75 | 209 | 13.0 | 22.0 | 0.00 | 0.00 | 0.00 | 18 | 1016.3 |
| 20260904160719 | 75 | 205 | 14.0 | 23.0 | 0.00 | 0.00 | 0.00 | 17 | 1016.3 |
| 20260904160214 | 75 | 193 | 15.0 | 25.0 | 0.00 | 0.00 | 0.00 | 16 | 1016.3 |
| 20260904155728 | 75 | 207 | 13.0 | 25.0 | 0.00 | 0.00 | 0.00 | 17 | 1016.3 |
| 20260904155222 | 75 | 225 | 13.0 | 24.0 | 0.00 | 0.00 | 0.00 | 18 | 1016.3 |
| 20260904154716 | 74 | 206 | 13.0 | 19.0 | 0.00 | 0.00 | 0.00 | 19 | 1016.3 |
| 20260904154230 | 74 | 209 | 8.0 | 14.0 | 0.00 | 0.00 | 0.00 | 20 | 1016.3 |
| 20260904153728 | 74 | 207 | 8.0 | 14.0 | 0.00 | 0.00 | 0.00 | 21 | 1016.2 |
| 20260904153222 | 74 | 213 | 8.0 | 15.0 | 0.00 | 0.00 | 0.00 | 23 | 1016.2 |
| 20260904152736 | 73 | 198 | 8.0 | 15.0 | 0.00 | 0.00 | 0.00 | 24 | 1016.2 |
| 20260904152230 | 73 | 216 | 9.0 | 14.0 | 0.00 | 0.00 | 0.00 | 24 | 1016.2 |
| 20260904151723 | 72 | 216 | 7.0 | 11.0 | 0.00 | 0.00 | 0.00 | 24 | 1016.2 |
| 20260904151217 | 72 | 216 | 6.0 | 12.0 | 0.00 | 0.00 | 0.00 | 25 | 1016.1 |
| 20260904150731 | 72 | 219 | 8.0 | 12.0 | 0.00 | 0.00 | 0.00 | 25 | 1016.1 |
| 20260904150226 | 72 | 225 | 8.0 | 11.0 | 0.00 | 0.00 | 0.00 | 25 | 1016.0 |
| 20260904145723 | 71 | 219 | 7.0 | 11.0 | 0.00 | 0.00 | 0.00 | 25 | 1016.0 |
| 20260904145217 | 71 | 223 | 8.0 | 12.0 | 0.00 | 0.00 | 0.00 | 25 | 1015.9 |
| 20260904144731 | 71 | 217 | 6.0 | 12.0 | 0.00 | 0.00 | 0.00 | 25 | 1015.9 |
| 20260904144225 | 71 | 209 | 8.0 | 10.0 | 0.00 | 0.00 | 0.00 | 24 | 1015.8 |
| 20260904143739 | 71 | 200 | 8.0 | 11.0 | 0.00 | 0.00 | 0.00 | 23 | 1015.6 |
| 20260904143232 | 70 | 202 | 8.0 | 11.0 | 0.00 | 0.00 | 0.00 | 23 | 1015.6 |
| 20260904142726 | 70 | 200 | 6.0 | 10.0 | 0.00 | 0.00 | 0.00 | 23 | 1015.6 |
| 20260904142220 | 70 | 196 | 6.0 | 10.0 | 0.00 | 0.00 | 0.00 | 23 | 1015.6 |
| 20260904141717 | 68 | 192 | 5.0 | 7.0 | 0.00 | 0.00 | 0.00 | 26 | 1015.5 |
| 20260904141232 | 68 | 192 | 4.0 | 7.0 | 0.00 | 0.00 | 0.00 | 26 | 1015.4 |
| 20260904140745 | 67 | 190 | 3.0 | 5.0 | 0.00 | 0.00 | 0.00 | 27 | 1015.5 |
| 20260904140219 | 66 | 190 | 3.0 | 6.0 | 0.00 | 0.00 | 0.00 | 28 | 1015.4 |
| 20260904135713 | 65 | 190 | 4.0 | 6.0 | 0.00 | 0.00 | 0.00 | 28 | 1015.5 |
| 20260904135248 | 64 | 190 | 4.0 | 6.0 | 0.00 | 0.00 | 0.00 | 29 | 1015.4 |
| 20260904134720 | 63 | 190 | 3.0 | 5.0 | 0.00 | 0.00 | 0.00 | 31 | 1015.3 |
| 20260904134235 | 61 | 190 | 3.0 | 6.0 | 0.00 | 0.00 | 0.00 | 33 | 1015.2 |
| 20260904133727 | 61 | 190 | 3.0 | 6.0 | 0.00 | 0.00 | 0.00 | 32 | 1015.2 |
| 20260904133222 | 61 | 190 | 3.0 | 5.0 | 0.00 | 0.00 | 0.00 | 32 | 1015.1 |
| 20260904132739 | 60 | 190 | 2.0 | 4.0 | 0.00 | 0.00 | 0.00 | 33 | 1015.0 |
| 20260904132233 | 59 | 190 | 2.0 | 3.0 | 0.00 | 0.00 | 0.00 | 34 | 1015.0 |
| 20260904131728 | 60 | 190 | 1.0 | 4.0 | 0.00 | 0.00 | 0.00 | 33 | 1014.9 |
| 20260904131222 | 61 | 190 | 2.0 | 5.0 | 0.00 | 0.00 | 0.00 | 30 | 1014.8 |
| 20260904130715 | 61 | 190 | 2.0 | 5.0 | 0.00 | 0.00 | 0.00 | 30 | 1014.7 |
| 20260904130252 | 61 | 190 | 3.0 | 5.0 | 0.00 | 0.00 | 0.00 | 30 | 1014.6 |
| 20260904125724 | 62 | 190 | 3.0 | 5.0 | 0.00 | 0.00 | 0.00 | 28 | 1014.6 |
| 20260904125238 | 63 | 190 | 4.0 | 5.0 | 0.00 | 0.00 | 0.00 | 27 | 1014.6 |
| 20260904124731 | 63 | 190 | 3.0 | 6.0 | 0.00 | 0.00 | 0.00 | 28 | 1014.5 |
| 20260904124230 | 64 | 190 | 3.0 | 7.0 | 0.00 | 0.00 | 0.00 | 27 | 1014.4 |
| 20260904123723 | 65 | 190 | 5.0 | 8.0 | 0.00 | 0.00 | 0.00 | 25 | 1014.3 |
| 20260904123217 | 66 | 190 | 5.0 | 8.0 | 0.00 | 0.00 | 0.00 | 24 | 1014.2 |
| 20260904122731 | 66 | 189 | 5.0 | 8.0 | 0.00 | 0.00 | 0.00 | 23 | 1014.2 |
| 20260904122226 | 67 | 178 | 3.0 | 8.0 | 0.00 | 0.00 | 0.00 | 23 | 1014.1 |
| 20260904121720 | 67 | 178 | 5.0 | 9.0 | 0.00 | 0.00 | 0.00 | 23 | 1014.0 |
| 20260904121214 | 67 | 184 | 5.0 | 9.0 | 0.00 | 0.00 | 0.00 | 22 | 1014.1 |
| 20260904120728 | 67 | 188 | 5.0 | 11.0 | 0.00 | 0.00 | 0.00 | 21 | 1014.0 |
| 20260904120227 | 68 | 186 | 6.0 | 11.0 | 0.00 | 0.00 | 0.00 | 21 | 1014.0 |
| 20260904115720 | 68 | 184 | 7.0 | 14.0 | 0.00 | 0.00 | 0.00 | 20 | 1014.0 |
| 20260904115214 | 69 | 194 | 8.0 | 14.0 | 0.00 | 0.00 | 0.00 | 20 | 1014.0 |
| 20260904114748 | 68 | 187 | 10.0 | 13.0 | 0.00 | 0.00 | 0.00 | 21 | 1013.9 |
| 20260904114220 | 68 | 177 | 8.0 | 13.0 | 0.00 | 0.00 | 0.00 | 20 | 1013.9 |
| 20260904113714 | 68 | 192 | 7.0 | 12.0 | 0.00 | 0.00 | 0.00 | 19 | 1013.9 |
| 20260904113248 | 68 | 180 | 8.0 | 12.0 | 0.00 | 0.00 | 0.00 | 18 | 1013.8 |
| 20260904112721 | 68 | 187 | 8.0 | 14.0 | 0.00 | 0.00 | 0.00 | 18 | 1013.8 |
| 20260904111733 | 67 | 192 | 7.0 | 12.0 | 0.00 | 0.00 | 0.00 | 16 | 1013.8 |
| 20260904111227 | 66 | 193 | 7.0 | 13.0 | 0.00 | 0.00 | 0.00 | 16 | 1013.9 |
| 20260904110721 | 67 | 185 | 6.0 | 13.0 | 0.00 | 0.00 | 0.00 | 15 | 1013.9 |
| 20260904110216 | 67 | 184 | 6.0 | 11.0 | 0.00 | 0.00 | 0.00 | 15 | 1013.9 |
| 20260904105751 | 67 | 191 | 6.0 | 11.0 | 0.00 | 0.00 | 0.00 | 14 | 1014.0 |
| 20260904105223 | 67 | 190 | 7.0 | 11.0 | 0.00 | 0.00 | 0.00 | 13 | 1013.9 |
| 20260904104717 | 67 | 188 | 6.0 | 11.0 | 0.00 | 0.00 | 0.00 | 13 | 1013.9 |
| 20260904104215 | 68 | 198 | 6.0 | 12.0 | 0.00 | 0.00 | 0.00 | 13 | 1014.0 |
| 20260904103728 | 68 | 192 | 7.0 | 12.0 | 0.00 | 0.00 | 0.00 | 13 | 1013.8 |
| 20260904103223 | 67 | 188 | 6.0 | 11.0 | 0.00 | 0.00 | 0.00 | 13 | 1013.8 |
| 20260904102716 | 67 | 189 | 7.0 | 11.0 | 0.00 | 0.00 | 0.00 | 13 | 1013.8 |
| 20260904102230 | 67 | 183 | 6.0 | 10.0 | 0.00 | 0.00 | 0.00 | 12 | 1013.8 |
| 20260904101723 | 67 | 194 | 6.0 | 10.0 | 0.00 | 0.00 | 0.00 | 12 | 1013.7 |
| 20260904101217 | 67 | 200 | 8.0 | 10.0 | 0.00 | 0.00 | 0.00 | 11 | 1013.6 |
| 20260904100731 | 67 | 196 | 8.0 | 10.0 | 0.00 | 0.00 | 0.00 | 11 | 1013.6 |
| 20260904100226 | 67 | 197 | 7.0 | 11.0 | 0.00 | 0.00 | 0.00 | 11 | 1013.6 |
| 20260904095724 | 68 | 198 | 7.0 | 13.0 | 0.00 | 0.00 | 0.00 | 10 | 1013.5 |
| 20260904095238 | 68 | 198 | 7.0 | 15.0 | 0.00 | 0.00 | 0.00 | 9 | 1013.4 |
| 20260904094731 | 68 | 195 | 9.0 | 15.0 | 0.00 | 0.00 | 0.00 | 9 | 1013.3 |
| 20260904094225 | 68 | 194 | 7.0 | 12.0 | 0.00 | 0.00 | 0.00 | 9 | 1013.4 |
| 20260904093719 | 68 | 207 | 7.0 | 12.0 | 0.00 | 0.00 | 0.00 | 8 | 1013.3 |
| 20260904093233 | 68 | 196 | 8.0 | 14.0 | 0.00 | 0.00 | 0.00 | 8 | 1013.4 |
| 20260904092727 | 69 | 185 | 9.0 | 19.0 | 0.00 | 0.00 | 0.00 | 8 | 1013.3 |
| 20260904092221 | 69 | 198 | 9.0 | 19.0 | 0.00 | 0.00 | 0.00 | 8 | 1013.4 |
| 20260904091738 | 68 | 202 | 6.0 | 15.0 | 0.00 | 0.00 | 0.00 | 8 | 1013.3 |
| 20260904091252 | 69 | 183 | 7.0 | 15.0 | 0.00 | 0.00 | 0.00 | 7 | 1013.3 |
| 20260904090725 | 69 | 169 | 8.0 | 15.0 | 0.00 | 0.00 | 0.00 | 7 | 1013.3 |
| 20260904090241 | 69 | 195 | 8.0 | 15.0 | 0.00 | 0.00 | 0.00 | 7 | 1013.3 |
| 20260904085754 | 69 | 180 | 8.0 | 15.0 | 0.00 | 0.00 | 0.00 | 6 | 1013.3 |
| 20260904085227 | 69 | 167 | 10.0 | 14.0 | 0.00 | 0.00 | 0.00 | 7 | 1013.3 |
| 20260904084721 | 69 | 173 | 7.0 | 12.0 | 0.00 | 0.00 | 0.00 | 7 | 1013.2 |
| 20260904084236 | 69 | 190 | 6.0 | 14.0 | 0.00 | 0.00 | 0.00 | 6 | 1013.3 |
| 20260904083729 | 69 | 172 | 7.0 | 14.0 | 0.00 | 0.00 | 0.00 | 6 | 1013.3 |
| 20260904083223 | 69 | 175 | 9.0 | 13.0 | 0.00 | 0.00 | 0.00 | 5 | 1013.3 |
| 20260904082721 | 69 | 178 | 7.0 | 13.0 | 0.00 | 0.00 | 0.00 | 5 | 1013.3 |
| 20260904082215 | 69 | 193 | 6.0 | 14.0 | 0.00 | 0.00 | 0.00 | 5 | 1013.3 |
| 20260904081729 | 69 | 162 | 8.0 | 14.0 | 0.00 | 0.00 | 0.00 | 5 | 1013.2 |
| 20260904081223 | 69 | 191 | 8.0 | 17.0 | 0.00 | 0.00 | 0.00 | 5 | 1013.3 |
| 20260904080737 | 70 | 180 | 7.0 | 17.0 | 0.00 | 0.00 | 0.00 | 4 | 1013.3 |
| 20260904080232 | 70 | 159 | 7.0 | 18.0 | 0.00 | 0.00 | 0.00 | 4 | 1013.4 |
| 20260904075725 | 70 | 163 | 8.0 | 20.0 | 0.00 | 0.00 | 0.00 | 4 | 1013.3 |
| 20260904075219 | 70 | 192 | 8.0 | 20.0 | 0.00 | 0.00 | 0.00 | 4 | 1013.3 |
| 20260904074717 | 70 | 179 | 9.0 | 15.0 | 0.00 | 0.00 | 0.00 | 4 | 1013.2 |
| 20260904074232 | 70 | 151 | 7.0 | 13.0 | 0.00 | 0.00 | 0.00 | 4 | 1013.3 |
| 20260904073725 | 70 | 163 | 8.0 | 13.0 | 0.00 | 0.00 | 0.00 | 4 | 1013.3 |
| 20260904073220 | 69 | 159 | 7.0 | 12.0 | 0.00 | 0.00 | 0.00 | 5 | 1013.3 |
| 20260904072713 | 69 | 165 | 7.0 | 12.0 | 0.00 | 0.00 | 0.00 | 5 | 1013.2 |
| 20260904072248 | 69 | 158 | 7.0 | 12.0 | 0.00 | 0.00 | 0.00 | 5 | 1013.2 |
| 20260904071721 | 69 | 159 | 9.0 | 12.0 | 0.00 | 0.00 | 0.00 | 4 | 1013.2 |
| 20260904070729 | 70 | 162 | 6.0 | 20.0 | 0.00 | 0.00 | 0.00 | 4 | 1013.2 |
| 20260904070228 | 71 | 178 | 8.0 | 23.0 | 0.00 | 0.00 | 0.00 | 4 | 1013.2 |
| 20260904065722 | 70 | 188 | 12.0 | 23.0 | 0.00 | 0.00 | 0.00 | 3 | 1013.2 |
| 20260904065216 | 70 | 183 | 8.0 | 15.0 | 0.00 | 0.00 | 0.00 | 4 | 1013.2 |
| 20260904064730 | 70 | 175 | 10.0 | 18.0 | 0.00 | 0.00 | 0.00 | 3 | 1013.1 |
| 20260904064224 | 71 | 203 | 12.0 | 18.0 | 0.00 | 0.00 | 0.00 | 3 | 1013.1 |
| 20260904063718 | 70 | 188 | 11.0 | 18.0 | 0.00 | 0.00 | 0.00 | 4 | 1013.0 |
| 20260904063252 | 70 | 180 | 8.0 | 13.0 | 0.00 | 0.00 | 0.00 | 4 | 1013.1 |
| 20260904062724 | 70 | 190 | 9.0 | 16.0 | 0.00 | 0.00 | 0.00 | 4 | 1013.0 |
| 20260904062222 | 71 | 194 | 8.0 | 16.0 | 0.00 | 0.00 | 0.00 | 3 | 1013.0 |
| 20260904061717 | 71 | 186 | 9.0 | 13.0 | 0.00 | 0.00 | 0.00 | 3 | 1013.0 |
| 20260904061231 | 71 | 143 | 9.0 | 15.0 | 0.00 | 0.00 | 0.00 | 4 | 1013.0 |
| 20260904060725 | 70 | 180 | 8.0 | 15.0 | 0.00 | 0.00 | 0.00 | 4 | 1013.0 |
| 20260904060220 | 70 | 168 | 7.0 | 16.0 | 0.00 | 0.00 | 0.00 | 4 | 1013.0 |
| 20260904055714 | 70 | 196 | 7.0 | 12.0 | 0.00 | 0.00 | 0.00 | 4 | 1013.0 |
| 20260904055229 | 71 | 184 | 8.0 | 13.0 | 0.00 | 0.00 | 0.00 | 4 | 1013.0 |
| 20260904054723 | 70 | 182 | 7.0 | 13.0 | 0.00 | 0.00 | 0.00 | 4 | 1012.9 |
| 20260904054241 | 71 | 180 | 6.0 | 10.0 | 0.00 | 0.00 | 0.00 | 4 | 1012.9 |
| 20260904053754 | 71 | 187 | 7.0 | 13.0 | 0.00 | 0.00 | 0.00 | 5 | 1012.9 |
| 20260904053227 | 71 | 176 | 7.0 | 13.0 | 0.00 | 0.00 | 0.00 | 4 | 1012.9 |
| 20260904052721 | 72 | 189 | 7.0 | 13.0 | 0.00 | 0.00 | 0.00 | 4 | 1012.8 |
| 20260904052214 | 72 | 180 | 7.0 | 12.0 | 0.00 | 0.00 | 0.00 | 4 | 1012.8 |
| 20260904051728 | 71 | 211 | 6.0 | 11.0 | 0.00 | 0.00 | 0.00 | 5 | 1012.8 |
| 20260904051223 | 71 | 176 | 7.0 | 10.0 | 0.00 | 0.00 | 0.00 | 6 | 1012.8 |
| 20260904050718 | 71 | 184 | 5.0 | 11.0 | 0.00 | 0.00 | 0.00 | 5 | 1012.8 |
| 20260904050233 | 71 | 171 | 5.0 | 10.0 | 0.00 | 0.00 | 0.00 | 6 | 1012.7 |
| 20260904045730 | 71 | 167 | 6.0 | 10.0 | 0.00 | 0.00 | 0.00 | 5 | 1012.8 |
| 20260904045244 | 72 | 165 | 7.0 | 10.0 | 0.00 | 0.00 | 0.00 | 5 | 1012.8 |
| 20260904044737 | 72 | 157 | 7.0 | 10.0 | 0.00 | 0.00 | 0.00 | 5 | 1012.8 |
| 20260904044230 | 72 | 165 | 6.0 | 11.0 | 0.00 | 0.00 | 0.00 | 4 | 1012.8 |
| 20260904043724 | 71 | 181 | 7.0 | 12.0 | 0.00 | 0.00 | 0.00 | 5 | 1012.8 |
| 20260904043218 | 72 | 182 | 6.0 | 15.0 | 0.00 | 0.00 | 0.00 | 5 | 1012.8 |
| 20260904042732 | 72 | 157 | 8.0 | 15.0 | 0.00 | 0.00 | 0.00 | 5 | 1012.8 |
| 20260904042226 | 72 | 157 | 7.0 | 13.0 | 0.00 | 0.00 | 0.00 | 5 | 1012.8 |
| 20260904041720 | 73 | 184 | 7.0 | 13.0 | 0.00 | 0.00 | 0.00 | 5 | 1012.8 |
| 20260904041219 | 73 | 183 | 8.0 | 16.0 | 0.00 | 0.00 | 0.00 | 5 | 1012.8 |
| 20260904040752 | 73 | 178 | 9.0 | 16.0 | 0.00 | 0.00 | 0.00 | 5 | 1012.8 |
| 20260904040246 | 74 | 180 | 8.0 | 15.0 | 0.00 | 0.00 | 0.00 | 5 | 1012.7 |
| 20260904035718 | 74 | 166 | 11.0 | 18.0 | 0.00 | 0.00 | 0.00 | 4 | 1012.6 |
| 20260904035232 | 74 | 165 | 8.0 | 18.0 | 0.00 | 0.00 | 0.00 | 4 | 1012.5 |
| 20260904034725 | 74 | 141 | 9.0 | 15.0 | 0.00 | 0.00 | 0.00 | 5 | 1012.6 |
| 20260904034220 | 74 | 184 | 8.0 | 15.0 | 0.00 | 0.00 | 0.00 | 5 | 1012.5 |
| 20260904033713 | 74 | 157 | 8.0 | 15.0 | 0.00 | 0.00 | 0.00 | 6 | 1012.6 |
| 20260904033228 | 74 | 193 | 9.0 | 18.0 | 0.00 | 0.00 | 0.00 | 6 | 1012.6 |
| 20260904032726 | 74 | 183 | 5.0 | 14.0 | 0.00 | 0.00 | 0.00 | 6 | 1012.5 |
| 20260904032220 | 74 | 180 | 9.0 | 14.0 | 0.00 | 0.00 | 0.00 | 6 | 1012.5 |
| 20260904031714 | 74 | 173 | 7.0 | 13.0 | 0.00 | 0.00 | 0.00 | 6 | 1012.4 |
| 20260904031228 | 74 | 185 | 7.0 | 13.0 | 0.00 | 0.00 | 0.00 | 6 | 1012.4 |
| 20260904030722 | 74 | 197 | 7.0 | 12.0 | 0.00 | 0.00 | 0.00 | 6 | 1012.3 |
| 20260904030217 | 74 | 149 | 7.0 | 11.0 | 0.00 | 0.00 | 0.00 | 6 | 1012.3 |
| 20260904025731 | 74 | 190 | 6.0 | 12.0 | 0.00 | 0.00 | 0.00 | 7 | 1012.3 |
| 20260904025228 | 74 | 179 | 5.0 | 12.0 | 0.00 | 0.00 | 0.00 | 6 | 1012.3 |
| 20260904024722 | 74 | 178 | 5.0 | 10.0 | 0.00 | 0.00 | 0.00 | 6 | 1012.2 |
| 20260904024216 | 75 | 176 | 6.0 | 10.0 | 0.00 | 0.00 | 0.00 | 6 | 1012.1 |
| 20260904023730 | 74 | 163 | 8.0 | 12.0 | 0.00 | 0.00 | 0.00 | 6 | 1012.1 |
| 20260904023244 | 75 | 163 | 8.0 | 12.0 | 0.00 | 0.00 | 0.00 | 6 | 1012.1 |
| 20260904022717 | 75 | 182 | 6.0 | 12.0 | 0.00 | 0.00 | 0.00 | 5 | 1012.1 |
| 20260904022231 | 75 | 170 | 9.0 | 12.0 | 0.00 | 0.00 | 0.00 | 6 | 1012.0 |
| 20260904021724 | 76 | 196 | 5.0 | 12.0 | 0.00 | 0.00 | 0.00 | 5 | 1012.0 |
| 20260904021224 | 76 | 186 | 7.0 | 13.0 | 0.00 | 0.00 | 0.00 | 5 | 1012.0 |
| 20260904020718 | 77 | 193 | 7.0 | 13.0 | 0.00 | 0.00 | 0.00 | 4 | 1012.0 |
| 20260904020233 | 77 | 217 | 9.0 | 16.0 | 0.00 | 0.00 | 0.00 | 4 | 1011.9 |
| 20260904015726 | 78 | 191 | 10.0 | 17.0 | 0.00 | 0.00 | 0.00 | 3 | 1011.9 |
| 20260904015221 | 78 | 195 | 12.0 | 20.0 | 0.00 | 0.00 | 0.00 | 3 | 1011.8 |
| 20260904014715 | 79 | 197 | 12.0 | 22.0 | 0.00 | 0.00 | 0.00 | 3 | 1011.8 |
| 20260904014228 | 79 | 220 | 16.0 | 22.0 | 0.00 | 0.00 | 0.00 | 2 | 1011.8 |
| 20260904013722 | 79 | 216 | 12.0 | 19.0 | 0.00 | 0.00 | 0.00 | 2 | 1011.8 |
| 20260904013220 | 80 | 202 | 12.0 | 27.0 | 0.00 | 0.00 | 0.00 | 2 | 1011.8 |
| 20260904012754 | 80 | 217 | 11.0 | 27.0 | 0.00 | 0.00 | 0.00 | 2 | 1011.9 |
| 20260904012227 | 80 | 215 | 14.0 | 27.0 | 0.00 | 0.00 | 0.00 | 2 | 1011.8 |
| 20260904011720 | 80 | 209 | 12.0 | 25.0 | 0.00 | 0.00 | 0.00 | 2 | 1011.8 |
| 20260904011215 | 81 | 229 | 18.0 | 25.0 | 0.00 | 0.00 | 0.00 | 2 | 1011.7 |
| 20260904010728 | 81 | 211 | 13.0 | 23.0 | 0.00 | 0.00 | 0.00 | 2 | 1011.7 |
| 20260904010244 | 82 | 221 | 14.0 | 28.0 | 0.00 | 0.00 | 0.00 | 2 | 1011.7 |
| 20260904005736 | 82 | 214 | 17.0 | 28.0 | 0.00 | 0.00 | 0.00 | 2 | 1011.7 |
| 20260904005250 | 82 | 244 | 14.0 | 25.0 | 0.00 | 0.00 | 0.00 | 2 | 1011.7 |
| 20260904004722 | 82 | 222 | 20.0 | 26.0 | 0.00 | 0.00 | 0.00 | 2 | 1011.7 |
| 20260904004221 | 82 | 212 | 14.0 | 25.0 | 0.00 | 0.00 | 0.00 | 2 | 1011.7 |
| 20260904003714 | 82 | 225 | 16.0 | 27.0 | 0.00 | 0.00 | 0.00 | 2 | 1011.7 |
| 20260904003249 | 83 | 221 | 18.0 | 26.0 | 0.00 | 0.00 | 0.00 | 2 | 1011.6 |
| 20260904002721 | 83 | 227 | 21.0 | 26.0 | 0.00 | 0.00 | 0.00 | 2 | 1011.7 |
| 20260904002216 | 83 | 213 | 16.0 | 25.0 | 0.00 | 0.00 | 0.00 | 2 | 1011.6 |
| 20260904001731 | 84 | 188 | 15.0 | 28.0 | 0.00 | 0.00 | 0.00 | 2 | 1011.7 |
| 20260904001224 | 83 | 223 | 17.0 | 28.0 | 0.00 | 0.00 | 0.00 | 2 | 1011.7 |
| 20260904000718 | 84 | 225 | 18.0 | 28.0 | 0.00 | 0.00 | 0.00 | 2 | 1011.7 |
| 20260904000218 | 84 | 212 | 18.0 | 30.0 | 0.00 | 0.00 | 0.00 | 2 | 1011.7 |
| 20260903235731 | 84 | 253 | 17.0 | 30.0 | 0.00 | 0.00 | 0.00 | 2 | 1011.7 |
| 20260903235225 | 84 | 234 | 19.0 | 31.0 | 0.00 | 0.00 | 0.00 | 2 | 1011.7 |
| 20260903234719 | 85 | 215 | 19.0 | 31.0 | 0.00 | 0.00 | 0.00 | 2 | 1011.7 |
| 20260903234213 | 85 | 211 | 18.0 | 29.0 | 0.00 | 0.00 | 0.00 | 2 | 1011.7 |
| 20260903233747 | 85 | 242 | 17.0 | 29.0 | 0.00 | 0.00 | 0.00 | 2 | 1011.7 |
| 20260903233220 | 85 | 196 | 15.0 | 25.0 | 0.00 | 0.00 | 0.00 | 2 | 1011.7 |
| 20260903232714 | 85 | 238 | 18.0 | 27.0 | 0.00 | 0.00 | 0.00 | 2 | 1011.7 |
| 20260903232228 | 85 | 223 | 20.0 | 27.0 | 0.00 | 0.00 | 0.00 | 2 | 1011.8 |
| 20260903231726 | 85 | 223 | 18.0 | 27.0 | 0.00 | 0.00 | 0.00 | 2 | 1011.8 |
| 20260903231220 | 85 | 212 | 19.0 | 28.0 | 0.00 | 0.00 | 0.00 | 2 | 1011.9 |
| 20260903230714 | 85 | 215 | 21.0 | 28.0 | 0.00 | 0.00 | 0.00 | 2 | 1011.9 |
| 20260903230229 | 85 | 218 | 16.0 | 32.0 | 0.00 | 0.00 | 0.00 | 2 | 1012.0 |
| 20260903225722 | 85 | 229 | 18.0 | 32.0 | 0.00 | 0.00 | 0.00 | 2 | 1012.1 |
| 20260903225217 | 85 | 217 | 20.0 | 29.0 | 0.00 | 0.00 | 0.00 | 2 | 1012.1 |
| 20260903224730 | 85 | 231 | 19.0 | 28.0 | 0.00 | 0.00 | 0.00 | 3 | 1012.3 |
| 20260903224229 | 85 | 231 | 18.0 | 28.0 | 0.00 | 0.00 | 0.00 | 2 | 1012.3 |
| 20260903223722 | 86 | 220 | 16.0 | 27.0 | 0.00 | 0.00 | 0.00 | 3 | 1012.3 |
| 20260903223236 | 85 | 235 | 18.0 | 27.0 | 0.00 | 0.00 | 0.00 | 3 | 1012.2 |
| 20260903222729 | 85 | 211 | 19.0 | 28.0 | 0.00 | 0.00 | 0.00 | 3 | 1012.3 |
| 20260903222223 | 85 | 247 | 15.0 | 29.0 | 0.00 | 0.00 | 0.00 | 3 | 1012.4 |
| 20260903221717 | 86 | 227 | 17.0 | 29.0 | 0.00 | 0.00 | 0.00 | 3 | 1012.5 |
| 20260903221231 | 86 | 230 | 16.0 | 22.0 | 0.00 | 0.00 | 0.00 | 3 | 1012.5 |
| 20260903220725 | 85 | 211 | 13.0 | 26.0 | 0.00 | 0.00 | 0.00 | 3 | 1012.7 |
| 20260903220224 | 85 | 209 | 12.0 | 26.0 | 0.00 | 0.00 | 0.00 | 4 | 1012.8 |
| 20260903215718 | 85 | 221 | 15.0 | 23.0 | 0.00 | 0.00 | 0.00 | 3 | 1012.9 |
| 20260903215232 | 86 | 228 | 14.0 | 23.0 | 0.00 | 0.00 | 0.00 | 3 | 1012.8 |
| 20260903214726 | 85 | 202 | 11.0 | 23.0 | 0.00 | 0.00 | 0.00 | 4 | 1012.9 |
| 20260903214220 | 85 | 238 | 14.0 | 25.0 | 0.00 | 0.00 | 0.00 | 3 | 1013.0 |
| 20260903213715 | 85 | 238 | 14.0 | 25.0 | 0.00 | 0.00 | 0.00 | 4 | 1013.1 |
| 20260903213229 | 86 | 211 | 14.0 | 23.0 | 0.00 | 0.00 | 0.00 | 3 | 1013.0 |
| 20260903212742 | 85 | 242 | 10.0 | 18.0 | 0.00 | 0.00 | 0.00 | 3 | 1013.0 |
| 20260903212220 | 85 | 187 | 12.0 | 18.0 | 0.00 | 0.00 | 0.00 | 3 | 1013.2 |
| 20260903211714 | 85 | 208 | 14.0 | 22.0 | 0.00 | 0.00 | 0.00 | 3 | 1013.3 |
| 20260903211228 | 85 | 201 | 13.0 | 22.0 | 0.00 | 0.00 | 0.00 | 3 | 1013.3 |
| 20260903210722 | 85 | 210 | 10.0 | 20.0 | 0.00 | 0.00 | 0.00 | 4 | 1013.4 |
| 20260903210237 | 84 | 205 | 11.0 | 19.0 | 0.00 | 0.00 | 0.00 | 3 | 1013.4 |
| 20260903205729 | 84 | 204 | 13.0 | 19.0 | 0.00 | 0.00 | 0.00 | 4 | 1013.6 |
| 20260903205224 | 83 | 178 | 9.0 | 21.0 | 0.00 | 0.00 | 0.00 | 4 | 1013.7 |
| 20260903204737 | 83 | 167 | 9.0 | 21.0 | 0.00 | 0.00 | 0.00 | 3 | 1013.8 |
| 20260903204231 | 84 | 211 | 12.0 | 18.0 | 0.00 | 0.00 | 0.00 | 3 | 1013.8 |
| 20260903203745 | 84 | 211 | 9.0 | 19.0 | 0.00 | 0.00 | 0.00 | 3 | 1014.0 |
| 20260903203221 | 84 | 248 | 12.0 | 25.0 | 0.00 | 0.00 | 0.00 | 2 | 1014.0 |
| 20260903202715 | 83 | 215 | 12.0 | 25.0 | 0.00 | 0.00 | 0.00 | 3 | 1014.1 |
| 20260903202230 | 83 | 238 | 12.0 | 24.0 | 0.00 | 0.00 | 0.00 | 2 | 1014.2 |
| 20260903201743 | 84 | 207 | 14.0 | 24.0 | 0.00 | 0.00 | 0.00 | 1 | 1014.3 |
| 20260903201237 | 84 | 205 | 11.0 | 22.0 | 0.00 | 0.00 | 0.00 | 2 | 1014.5 |
| 20260903200730 | 83 | 217 | 13.0 | 22.0 | 0.00 | 0.00 | 0.00 | 2 | 1014.4 |
| 20260903200225 | 83 | 200 | 15.0 | 22.0 | 0.00 | 0.00 | 0.00 | 2 | 1014.5 |
| 20260903195718 | 83 | 214 | 10.0 | 21.0 | 0.00 | 0.00 | 0.00 | 2 | 1014.5 |
| 20260903195216 | 82 | 243 | 14.0 | 21.0 | 0.00 | 0.00 | 0.00 | 3 | 1014.7 |
| 20260903194731 | 82 | 173 | 10.0 | 21.0 | 0.00 | 0.00 | 0.00 | 2 | 1014.8 |
| 20260903194225 | 82 | 226 | 8.0 | 22.0 | 0.00 | 0.00 | 0.00 | 2 | 1014.7 |
| 20260903193718 | 82 | 188 | 7.0 | 22.0 | 0.00 | 0.00 | 0.00 | 3 | 1014.8 |
| 20260903193233 | 82 | 206 | 14.0 | 21.0 | 0.00 | 0.00 | 0.00 | 2 | 1014.9 |
| 20260903192746 | 82 | 209 | 9.0 | 20.0 | 0.00 | 0.00 | 0.00 | 2 | 1015.0 |
| 20260903192220 | 82 | 191 | 12.0 | 24.0 | 0.00 | 0.00 | 0.00 | 2 | 1015.1 |
| 20260903191754 | 82 | 236 | 17.0 | 24.0 | 0.00 | 0.00 | 0.00 | 2 | 1015.2 |
| 20260903191227 | 82 | 227 | 11.0 | 17.0 | 0.00 | 0.00 | 0.00 | 3 | 1015.2 |
| 20260903190725 | 82 | 200 | 8.0 | 21.0 | 0.00 | 0.00 | 0.00 | 3 | 1015.3 |
| 20260903190241 | 82 | 154 | 12.0 | 22.0 | 0.00 | 0.00 | 0.00 | 3 | 1015.5 |
| 20260903185713 | 81 | 227 | 14.0 | 22.0 | 0.00 | 0.00 | 0.00 | 2 | 1015.5 |
| 20260903185247 | 81 | 239 | 13.0 | 22.0 | 0.00 | 0.00 | 0.00 | 3 | 1015.5 |
| 20260903184720 | 81 | 228 | 11.0 | 21.0 | 0.00 | 0.00 | 0.00 | 3 | 1015.6 |
| 20260903184214 | 81 | 213 | 12.0 | 21.0 | 0.00 | 0.00 | 0.00 | 4 | 1015.6 |
| 20260903183748 | 81 | 198 | 10.0 | 16.0 | 0.00 | 0.00 | 0.00 | 3 | 1015.8 |
| 20260903183221 | 81 | 209 | 8.0 | 15.0 | 0.00 | 0.00 | 0.00 | 4 | 1015.8 |
| 20260903182715 | 79 | 204 | 4.0 | 15.0 | 0.00 | 0.00 | 0.00 | 7 | 1015.9 |
| 20260903182213 | 79 | 210 | 9.0 | 17.0 | 0.00 | 0.00 | 0.00 | 4 | 1016.0 |
| 20260903181727 | 80 | 217 | 10.0 | 18.0 | 0.00 | 0.00 | 0.00 | 4 | 1016.1 |
| 20260903181222 | 79 | 217 | 11.0 | 18.0 | 0.00 | 0.00 | 0.00 | 4 | 1016.1 |
| 20260903180716 | 79 | 191 | 10.0 | 21.0 | 0.00 | 0.00 | 0.00 | 6 | 1016.2 |
| 20260903180231 | 79 | 193 | 10.0 | 21.0 | 0.00 | 0.00 | 0.00 | 6 | 1016.2 |
| 20260903175724 | 78 | 155 | 11.0 | 21.0 | 0.00 | 0.00 | 0.00 | 4 | 1016.3 |
| 20260903175218 | 79 | 203 | 9.0 | 18.0 | 0.00 | 0.00 | 0.00 | 5 | 1016.4 |
| 20260903174732 | 78 | 215 | 7.0 | 18.0 | 0.00 | 0.00 | 0.00 | 6 | 1016.4 |
| 20260903174231 | 78 | 219 | 11.0 | 18.0 | 0.00 | 0.00 | 0.00 | 5 | 1016.4 |
| 20260903173725 | 78 | 204 | 11.0 | 20.0 | 0.00 | 0.00 | 0.00 | 5 | 1016.6 |
| 20260903173219 | 77 | 186 | 14.0 | 20.0 | 0.00 | 0.00 | 0.00 | 3 | 1016.6 |
| 20260903172733 | 77 | 205 | 10.0 | 19.0 | 0.00 | 0.00 | 0.00 | 5 | 1016.6 |